Погода в Красногвардейском

Россия / Республика Адыгея     45°08′37″N   39°35′22″E
темп.,
°C
ветер,
м/с
пор.,
м/с
влажн.,
%
обл.,
%
осадки,
мм/ч
давл.,
гПа
погр.,
м
28 сентября, вт
вт2800:00+13св3660100 0.0 1017254
03:00+12ссв34642 0.0 101797
06:00+10ссв356871 0.0 101897
09:00+15св35522 0.0 1018541
12:00+17св32427 0.0 10191721
15:00+19всв333710 0.0 10192021
18:00+16всв2448100 0.0 102072
21:00+15всв475388 0.0 1021270
29 сентября, ср
ср2900:00+12св386525 0.0 1021172
03:00+13всв41066100 0.0 1021363
06:00+12всв51169100 0.0 1022412
09:00+14всв7106389 0.0 1022543
12:00+18всв89498 0.0 10221554
15:00+17всв894666 0.0 10211618
18:00+15всв8115497 0.0 1023958
21:00+13всв81357100 0.0 1024801
30 сентября, чт
чт3000:00+11всв814575 0.0 1024645
03:00+10всв714544 0.0 1025571
06:00+9всв715560 0.0 1025538
09:00+12всв914470 0.0 1026857
12:00+15всв1012420 0.0 10251386
15:00+16всв1012374 0.0 10241638
18:00+13всв813395 0.0 1024708
21:00+11всв815400 0.0 1026710
1 октября, пт
пт100:00+10всв816440 0.0 1025662
03:00+9всв917461 0.0 1025645
06:00+8всв917514 0.0 1025570
09:00+11всв10164798 0.0 1026961
12:00+13всв101748100 0.0 10261275
15:00+13в81551100 0.0 10261552
18:00+12в81452100 0.0 10261143
21:00+12в81460100 0.0 10271264
2 октября, сб
сб200:00+11всв81571100 0.0 10271039
03:00+11всв81368100 0.0 10261029
06:00+11всв71273100 0.0 1026866
09:00+11в71271100 0.0 1026864
12:00+14в8106490 0.0 10251096
15:00+14в8116291 0.0 10241023
18:00+13в7126319 0.0 1024845
21:00+12всв614675 0.0 1024641